Вернуться в каталог

STARLINK-31814

АктивенСвязьVLEO
NORAD 59802·PAYLOAD·🇺🇸 United States

Запущен May 18, 2024 с Cape Canaveral Space Force Station

Loading…

Ближайшие Пролёты (ближайшие 24 часа)

TLE

СвежийSource: CelesTrak SupGP

Эпоха: Sep 14, 2026, 22:12 UTC

1 59802C 24093W   26257.92548611  .00018903  00000+0  68460-3 0  2574
2 59802  43.0010 220.6007 0001013 258.6793  27.4758 15.27572405    18

Отслеживайте STARLINK-31814 в реальном времени с AllMySat

Download on the App Store